This is the latest recevied weather packets stored in our database for station/object JA6YCL-13. If no packets are shown the sender has not sent any weather packets the latest 10 day(s).
| Time | Temp. | Humidity | Pressure | Rain* | Wind** | Luminosity | Snow |
|---|---|---|---|---|---|---|---|
| 1778170661 | 18.89° C | 76% | 1011.8 hPa | 0 mm | - | - | - |
| 1778169937 | 18.89° C | 78% | 1011.8 hPa | 0 mm | - | - | - |
| 1778169058 | 18.89° C | 78% | 1011.9 hPa | 0 mm | - | - | - |
| 1778168263 | 18.89° C | 79% | 1011.7 hPa | 0 mm | - | - | - |
| 1778167518 | 18.89° C | 82% | 1011.9 hPa | 0 mm | - | - | - |
| 1778166763 | 18.89° C | 82% | 1011.8 hPa | 0 mm | - | - | - |
| 1778166035 | 18.89° C | 84% | 1012 hPa | 0 mm | - | - | - |
| 1778165198 | 18.33° C | 88% | 1012.1 hPa | 0 mm | - | - | - |
| 1778164363 | 18.33° C | 88% | 1012.2 hPa | 0 mm | - | - | - |
| 1778163642 | 18.33° C | 89% | 1012.3 hPa | 0 mm | - | - | - |
| 1778162848 | 18.33° C | 89% | 1012.2 hPa | 0 mm | - | - | - |
| 1778162128 | 18.33° C | 88% | 1012.3 hPa | 0 mm | - | - | - |
| 1778161318 | 18.33° C | 88% | 1012.4 hPa | 0 mm | - | - | - |
| 1778160512 | 18.89° C | 88% | 1012.5 hPa | 0 mm | - | - | - |
| 1778159687 | 18.89° C | 88% | 1012.4 hPa | 0 mm | - | - | - |
| 1778158903 | 18.89° C | 87% | 1012.4 hPa | 0 mm | - | - | - |
| 1778158148 | 18.89° C | 86% | 1012.2 hPa | 0 mm | - | - | - |
| 1778157253 | 19.44° C | 85% | 1012.2 hPa | 0 mm | - | - | - |
| 1778156357 | 19.44° C | 84% | 1012.2 hPa | 0 mm | - | - | - |
| 1778155623 | 19.44° C | 84% | 1012 hPa | 0 mm | - | - | - |
| 1778154743 | 20° C | 82% | 1011.9 hPa | 0 mm | - | - | - |
| 1778153908 | 20° C | 82% | 1011.9 hPa | 0 mm | - | - | - |
| 1778153073 | 20.56° C | 80% | 1011.7 hPa | 0 mm | - | - | - |
| 1778152213 | 20.56° C | 80% | 1011.6 hPa | 0 mm | - | - | - |
| 1778151433 | 20.56° C | 80% | 1011.7 hPa | 0 mm | - | - | - |
* Rain latest hour (hover to see other rain measurements)
** Current wind speed in m/s (hover to see current wind gust speed)